Theta_e
314 313 313 313 311 311 311 310 311 312 312 313 314 315 316 317 315 314 316 323 323 320 322 323 325 328 327 326 329 329 330 333 332 335 339 337 338 340 339 341 343 343 344 345 344 342 341 342 342 341 341 340 340 340 339 339 339 338 338 337 335 334 333 332 330 328 326 325 324 323 322 321 321 321 319 319 317 315 315 315 314 313 312 312 311 310 309
314 312 314 314 312 311 311 311 312 312 312 313 313 315 316 316 316 317 320 325 326 324 327 330 331 336 334 328 328 328 327 328 328 330 335 337 337 337 338 342 344 344 344 344 343 342 342 342 342 341 340 340 339 339 339 339 339 338 337 336 335 333 332 331 330 327 325 323 323 322 321 321 321 320 319 318 316 315 314 314 313 312 312 311 310 310 309
316 314 314 314 313 312 311 311 312 312 312 313 314 316 317 316 316 318 321 323 323 323 329 332 332 338 338 330 326 328 327 327 329 330 330 332 333 333 335 340 343 344 345 344 343 342 342 342 341 340 340 339 339 339 339 338 338 337 336 336 335 333 331 330 329 326 324 323 322 321 321 321 320 320 319 317 315 314 314 313 312 312 311 310 310 309 309
316 316 315 314 313 313 312 312 312 312 313 314 315 316 318 318 317 319 320 319 319 321 328 329 327 331 334 330 327 329 328 326 328 330 329 329 331 333 334 338 341 343 343 344 343 342 342 342 341 340 339 339 338 338 338 337 337 337 336 336 334 332 330 329 327 325 324 322 321 321 321 321 320 319 319 317 314 313 313 312 311 311 310 309 309 310 309
317 319 318 316 316 316 314 313 314 313 313 315 315 315 317 318 318 318 318 317 319 323 326 327 325 325 328 328 327 327 329 328 327 327 328 329 331 332 334 336 341 343 342 342 342 342 342 341 340 339 339 338 338 337 337 337 336 335 335 334 332 330 329 328 326 325 323 322 321 321 320 320 319 319 319 316 314 313 312 311 310 310 309 309 309 309 307
317 320 319 318 319 318 316 315 314 314 314 315 316 316 317 318 317 318 318 319 322 325 324 325 325 324 325 326 325 325 327 330 330 328 328 330 331 334 335 336 341 342 340 341 342 342 341 340 340 339 338 338 337 337 336 335 335 334 333 332 331 329 328 327 325 324 323 322 321 320 320 320 319 319 317 315 313 312 311 310 309 309 309 308 308 308 307
318 320 321 321 321 320 317 317 316 315 314 315 317 317 318 318 317 318 319 319 321 322 321 321 324 323 323 322 321 321 324 329 333 331 330 330 331 334 335 337 339 339 339 342 342 341 340 339 339 338 338 337 336 335 335 335 334 333 332 330 329 328 326 326 325 324 323 322 320 319 319 319 319 318 316 314 313 312 310 309 309 308 308 307 307 306 307
319 320 321 322 323 321 320 321 320 317 316 316 317 317 318 319 319 318 318 318 318 320 320 320 321 321 321 319 319 321 324 328 332 330 328 327 329 333 336 339 341 340 340 342 342 341 340 339 338 338 337 336 335 334 334 334 333 333 331 330 329 327 326 324 324 323 322 321 319 319 318 318 318 317 315 313 312 311 310 309 309 308 307 306 306 306 308
319 320 321 322 322 322 322 321 320 320 318 317 319 318 317 319 319 317 318 317 318 319 319 319 320 321 321 319 320 323 323 324 326 327 326 326 327 332 337 340 340 340 341 342 341 340 339 338 338 337 336 334 334 333 333 333 333 332 332 331 329 327 326 325 324 323 322 320 319 318 318 317 317 315 314 313 311 310 310 309 308 308 307 307 307 307 307
319 320 322 323 322 322 323 324 324 326 323 321 322 319 317 319 319 318 319 318 318 319 319 320 321 321 321 320 319 323 325 324 322 323 325 325 325 331 337 337 338 340 341 341 340 339 338 338 337 336 334 333 332 332 332 332 332 332 332 331 330 327 327 326 325 324 323 321 321 320 318 317 316 315 314 312 311 309 308 307 306 306 305 305 306 305 305
318 320 322 323 322 322 324 325 326 325 323 323 323 317 315 319 319 317 317 319 320 321 319 321 322 322 320 318 319 330 337 333 326 322 323 323 326 333 337 336 338 342 341 340 339 338 338 338 336 334 333 332 331 331 331 331 331 331 331 331 330 328 327 326 325 325 323 322 321 320 318 316 315 314 313 311 310 308 307 305 304 303 303 303 303 303 305
318 319 321 322 322 321 323 325 325 323 322 323 322 317 318 323 326 323 319 318 320 321 322 323 322 320 318 318 327 339 342 335 329 327 326 325 329 336 338 337 340 342 340 339 338 338 337 337 336 334 333 332 331 331 331 331 331 331 331 330 329 328 327 325 324 324 322 319 319 318 316 315 314 313 312 310 309 307 306 305 303 302 302 302 303 304 306
318 319 320 321 321 320 322 324 325 325 323 321 320 320 324 329 331 327 325 324 321 321 323 322 319 321 324 328 335 340 338 335 333 331 328 328 330 334 337 339 340 340 339 339 338 337 336 336 335 334 333 332 331 331 331 331 331 331 331 330 329 327 326 324 323 322 319 317 317 316 315 315 314 312 311 309 308 307 305 304 303 303 303 304 305 306 306
318 319 320 321 321 321 322 324 325 326 324 321 322 326 329 330 329 327 327 328 328 325 323 320 323 331 337 338 337 336 337 340 339 333 331 331 333 335 337 338 339 339 338 338 338 337 335 335 334 333 333 332 331 331 331 330 331 331 331 330 328 326 325 323 321 319 317 316 316 316 315 314 313 311 310 309 308 307 306 304 304 304 305 306 306 306 306
318 318 320 322 322 323 324 325 324 325 326 325 327 331 330 328 328 327 326 328 332 331 325 321 329 338 340 339 336 335 337 340 339 336 335 335 336 337 337 338 338 338 337 337 337 336 335 334 334 333 332 332 331 331 331 331 330 330 329 327 326 324 323 321 319 317 316 316 316 315 314 313 312 310 309 308 308 307 306 305 305 305 305 305 305 304 305
319 319 320 321 321 322 325 326 325 326 328 329 330 330 328 328 328 327 326 329 334 335 328 324 333 338 338 337 337 335 337 339 339 339 339 338 338 337 336 337 338 337 336 336 336 335 334 334 334 334 333 332 332 331 332 332 331 330 327 325 324 322 320 318 317 317 316 315 314 314 313 312 311 310 309 308 307 306 306 305 305 304 303 303 303 303 305
319 320 321 320 320 323 326 327 327 327 328 328 329 328 327 328 330 330 329 331 335 337 332 329 333 334 334 336 337 335 336 338 338 339 338 337 337 337 336 336 337 336 336 335 335 335 334 333 333 333 333 333 332 331 332 331 331 329 327 325 323 320 318 317 316 315 314 314 313 313 312 311 310 309 308 307 306 306 305 304 303 303 302 301 302 304 305
320 321 320 319 323 326 325 325 327 327 327 326 326 328 328 327 329 332 333 332 334 336 333 330 330 330 331 334 336 335 335 337 337 339 340 339 338 337 336 336 337 336 336 335 335 335 334 333 333 333 333 333 332 331 331 329 329 327 326 323 322 320 318 316 314 313 312 311 311 311 311 310 310 309 308 307 306 305 305 304 302 301 300 300 302 305 305
320 321 322 322 324 326 325 325 325 326 326 325 325 328 330 328 328 331 333 334 335 335 333 330 329 330 333 336 336 336 336 337 337 337 337 336 337 337 336 336 335 336 335 335 335 334 334 333 333 333 332 332 332 331 330 329 328 327 325 323 322 320 319 317 314 312 311 310 310 310 310 309 309 308 307 307 306 305 305 304 303 302 301 302 303 304 304
318 321 323 325 324 325 325 326 325 326 327 325 325 329 331 328 327 328 330 332 335 334 334 333 332 333 335 336 336 336 336 335 334 333 331 330 333 337 336 335 335 336 336 335 335 334 333 333 333 332 332 331 331 330 329 328 328 326 324 322 320 319 317 315 313 311 310 310 309 309 309 308 308 308 307 306 306 305 305 304 304 303 303 303 302 302 303
319 322 324 324 324 323 324 325 325 326 326 325 325 327 328 327 327 327 326 327 330 331 333 334 334 333 334 334 333 333 334 333 331 330 330 330 333 336 336 335 334 335 335 335 335 334 333 333 332 332 331 330 330 330 328 328 328 325 322 321 319 317 315 314 312 311 310 309 308 308 308 308 308 308 307 306 305 305 305 305 305 303 302 302 301 301 302
321 323 324 324 323 323 324 325 325 325 325 326 326 326 327 327 326 326 325 325 325 326 329 332 333 332 332 332 332 332 333 334 331 329 330 331 333 335 335 335 332 332 333 334 334 333 332 332 331 331 330 329 330 329 328 328 327 324 321 320 319 317 315 313 311 310 309 308 308 308 308 308 308 308 308 307 306 305 305 305 305 303 301 300 300 300 300
322 322 323 324 324 324 324 325 325 325 326 328 328 326 326 326 325 325 326 326 324 324 325 328 331 332 332 333 333 333 333 334 332 329 329 331 333 334 335 334 332 331 333 333 333 332 332 331 330 330 330 330 329 328 327 328 326 322 320 320 319 318 316 313 311 310 309 308 308 308 308 309 309 308 308 307 307 306 306 305 304 302 300 300 299 299 299
323 323 323 324 324 324 324 324 325 325 325 326 326 325 325 324 323 324 326 325 324 325 325 325 328 331 332 332 333 333 333 333 333 332 332 333 334 335 335 334 334 333 333 333 332 331 331 331 330 330 330 329 327 326 326 327 325 321 320 320 319 317 315 313 311 310 310 309 309 309 309 310 309 309 308 307 306 306 306 305 303 301 300 299 298 298 298
322 323 323 323 324 325 325 324 323 324 324 324 324 324 324 323 322 323 323 323 323 324 325 325 326 327 330 332 333 333 332 332 332 333 333 334 334 335 334 334 335 334 333 332 331 330 330 330 329 330 330 328 327 326 326 325 324 322 320 320 319 317 314 312 311 310 310 310 309 309 310 310 309 309 308 307 305 304 303 303 302 301 299 298 298 298 297
322 322 322 323 323 324 325 324 323 323 324 324 324 324 323 324 325 324 322 323 324 324 324 325 326 327 329 331 331 331 331 331 331 332 332 333 333 333 333 334 334 333 332 331 331 330 329 328 329 329 329 328 327 327 325 324 323 322 321 321 321 317 314 312 311 311 310 309 309 309 310 309 309 309 308 307 305 303 301 300 299 299 298 297 298 298 297
322 322 322 323 324 324 324 324 324 324 323 323 323 322 321 322 324 323 322 323 324 325 326 327 328 328 329 329 329 329 330 331 331 331 331 331 331 331 331 332 333 332 331 331 330 329 329 328 328 329 329 328 327 326 324 323 322 322 321 320 320 317 314 312 312 311 310 310 309 309 310 309 309 308 307 306 305 303 301 300 298 298 298 298 298 297 297
322 321 322 323 325 325 325 323 322 322 322 321 321 321 321 321 322 322 322 322 323 324 325 326 327 328 328 327 328 329 329 329 329 329 330 330 329 329 330 331 332 332 331 330 329 328 328 328 329 329 328 327 326 325 324 323 323 322 320 319 317 314 313 312 311 311 310 310 309 309 309 309 308 308 307 306 305 304 303 301 300 300 299 298 298 298 297
321 321 321 322 323 323 323 322 321 321 321 320 321 321 321 322 322 321 321 321 322 322 323 324 325 326 327 327 327 328 328 328 328 328 329 329 328 329 329 330 330 330 330 329 328 327 327 327 328 327 325 324 324 324 323 323 322 321 319 317 315 313 312 311 312 311 311 310 310 309 309 309 308 307 307 306 305 305 304 303 302 301 301 300 299 298 297
322 322 321 322 322 322 322 322 321 321 320 320 320 320 320 321 321 320 320 321 322 322 323 323 323 325 326 327 327 328 328 327 327 327 327 327 328 328 328 329 328 328 328 328 327 326 326 326 326 325 323 323 322 322 321 321 320 319 317 315 314 313 312 312 312 312 311 311 311 310 310 309 309 309 308 308 307 306 305 305 304 303 303 303 301 299 298
322 322 321 321 322 322 322 321 320 320 321 320 319 319 318 318 319 319 319 320 321 322 323 323 323 325 326 326 326 327 327 327 327 326 327 327 327 327 327 328 327 327 327 327 327 326 326 326 325 324 322 322 321 321 320 320 320 318 316 314 313 313 312 312 312 311 311 311 311 310 310 310 310 309 309 309 307 307 306 306 305 305 305 305 304 302 300
320 321 321 321 320 320 320 319 319 319 320 320 319 318 316 316 316 316 317 318 319 321 323 323 323 324 325 324 325 326 326 327 326 326 326 327 327 326 327 327 326 326 326 326 325 325 326 325 323 322 321 320 320 320 320 319 318 316 314 313 312 312 312 311 311 311 311 310 310 310 310 309 309 309 309 308 308 308 308 307 306 305 306 306 306 305 303
318 321 321 320 319 319 319 319 318 318 318 318 318 316 315 315 316 315 316 317 318 319 321 321 322 323 323 323 323 324 325 325 325 325 325 326 326 326 326 326 326 326 326 325 324 324 325 324 321 320 320 320 319 319 318 317 317 315 314 313 312 311 311 311 311 311 310 309 309 309 309 309 310 309 309 309 309 309 309 309 308 307 306 306 306 306 305
317 319 320 319 318 318 318 319 319 318 316 316 315 315 315 316 316 315 315 316 316 317 317 318 320 321 322 322 322 322 323 324 324 324 325 325 325 325 325 325 325 325 325 324 324 323 324 323 321 319 319 319 318 318 318 318 317 317 315 313 311 310 310 310 310 310 310 309 309 309 309 309 310 310 310 310 310 309 310 310 309 308 308 307 307 307 306
317 318 317 316 316 317 317 318 319 318 317 316 316 315 315 316 316 316 316 316 316 316 318 318 319 320 321 321 322 322 323 323 324 324 324 324 324 324 324 324 324 325 325 324 323 323 323 323 321 320 319 319 318 318 318 318 319 318 316 313 311 310 310 310 310 310 309 309 309 309 309 309 310 311 311 310 310 310 310 310 309 309 308 308 307 306 305
318 318 317 316 316 316 316 316 317 318 318 319 318 317 316 316 316 316 316 316 316 317 318 318 319 319 320 320 321 321 322 323 323 323 323 323 323 323 323 323 323 324 324 324 324 323 323 323 322 321 320 319 318 318 318 319 320 318 315 313 312 310 309 309 309 309 309 309 309 309 309 309 309 310 310 310 310 310 309 309 309 308 308 307 307 305 304
316 317 317 316 317 317 316 316 316 317 317 318 318 318 318 317 316 315 316 316 316 316 317 317 318 318 318 318 318 318 319 320 321 321 322 322 322 322 322 322 322 322 323 323 323 321 321 321 321 320 319 319 319 319 319 320 320 318 314 312 312 310 309 309 309 309 309 309 309 309 309 309 309 309 310 310 310 310 309 309 309 307 306 306 306 304 303
316 317 318 317 316 316 317 316 316 316 316 315 315 317 317 317 316 315 316 316 315 315 315 316 316 316 316 317 316 316 316 317 317 318 319 319 320 320 321 321 321 322 322 322 321 320 319 319 319 319 319 319 319 319 319 319 319 316 314 312 311 310 309 309 310 310 309 309 309 309 309 309 309 309 309 309 310 310 310 309 308 306 305 305 305 303 302
316 316 317 317 316 316 316 316 315 315 315 314 314 315 316 316 316 315 315 315 314 314 314 315 315 315 315 316 316 316 316 315 315 316 317 317 317 319 320 320 320 320 321 321 320 319 318 318 318 318 318 319 318 318 318 318 317 316 313 312 311 310 310 310 310 310 310 310 310 309 309 309 309 310 310 310 310 310 309 308 307 306 305 306 305 304 302
315 314 315 315 315 315 315 315 314 315 315 314 314 315 316 315 315 315 315 315 314 314 314 314 313 314 314 314 315 315 315 314 314 315 315 315 315 317 318 319 318 317 317 318 319 318 317 317 317 317 317 317 317 317 317 318 317 316 314 312 311 310 310 310 310 310 310 310 309 309 309 309 309 310 310 310 309 309 309 308 306 306 306 306 305 304 303
315 315 313 313 313 313 313 314 314 314 314 314 314 315 315 315 314 314 315 315 314 313 313 313 312 312 312 313 313 312 312 313 313 314 314 314 315 315 316 316 315 314 314 315 316 316 316 316 316 317 317 317 316 316 316 317 316 315 314 313 313 312 311 310 310 310 310 310 310 310 310 310 310 310 310 310 309 308 308 307 306 306 306 306 305 304 303
315 315 313 312 312 313 313 313 314 314 314 314 314 315 315 314 314 314 314 314 314 313 312 312 311 311 311 311 311 311 311 311 312 312 313 313 314 314 315 314 313 311 312 313 313 313 313 315 315 315 316 316 315 315 315 315 315 314 314 314 314 313 312 312 311 311 311 311 311 310 311 310 310 310 310 309 309 308 307 306 306 305 305 305 304 304 303
314 314 314 313 312 312 313 313 313 313 313 313 313 314 314 314 314 314 314 313 312 312 311 311 311 311 311 311 311 311 311 312 312 312 312 313 314 314 313 312 311 310 311 312 313 313 313 314 314 313 314 315 315 314 314 314 314 314 314 313 312 311 312 311 311 311 310 310 309 310 310 310 309 309 308 308 307 307 306 306 305 305 305 304 304 304 303
314 314 314 314 313 311 311 312 311 311 311 311 311 312 313 314 314 313 313 312 311 310 310 311 311 311 311 311 311 311 312 312 312 312 313 314 314 313 312 311 310 309 310 311 312 312 313 313 313 312 312 313 314 313 313 312 312 313 313 312 310 310 310 310 310 309 309 308 308 309 309 308 308 308 307 307 306 306 306 305 305 305 304 304 304 304 304
314 314 312 312 313 312 311 311 311 310 309 309 310 311 312 312 313 312 311 311 310 310 310 311 311 311 310 310 311 311 311 311 312 312 313 314 314 312 311 310 309 309 309 310 310 310 311 311 311 310 310 310 311 311 311 311 311 311 310 310 310 310 310 310 309 309 308 308 308 308 308 308 308 308 307 306 306 305 305 305 305 305 305 305 304 304 304
312 312 311 311 312 313 312 311 311 310 310 309 309 309 310 311 311 310 310 310 310 310 311 311 310 310 310 310 310 310 311 311 311 312 312 312 311 310 309 309 308 308 309 308 308 309 309 309 309 309 309 309 309 309 310 310 310 310 310 310 310 310 310 310 310 310 309 309 309 309 308 308 308 308 307 306 306 305 305 305 305 305 305 305 304 304 303
307 308 309 309 310 312 312 311 311 311 311 310 310 309 309 310 311 311 311 310 310 310 310 310 310 309 309 310 310 311 311 312 312 312 311 311 310 309 309 308 308 308 308 308 307 307 307 307 307 307 307 308 308 309 310 310 311 311 311 311 311 310 310 311 310 310 310 310 309 309 309 309 308 308 308 307 307 306 306 305 305 305 305 304 304 303 303
302 303 304 304 305 307 309 310 311 310 310 310 310 310 309 310 310 310 310 310 309 309 309 309 309 309 309 309 310 310 311 311 311 311 311 311 310 309 309 308 307 307 308 308 307 306 306 306 305 305 306 307 307 308 310 311 311 311 311 311 311 311 311 311 311 310 310 310 309 309 309 309 309 309 308 308 308 307 306 305 305 304 304 304 303 303 303
299 300 300 300 301 302 304 306 307 306 306 307 308 309 309 309 309 308 307 309 310 309 309 309 309 308 309 309 309 310 309 310 310 310 310 311 310 309 309 308 307 307 308 308 307 306 306 305 305 305 306 306 307 308 310 311 311 311 311 311 311 311 310 310 310 310 310 309 309 309 309 308 308 308 308 308 308 307 306 305 304 304 304 304 304 303 303
296 297 297 298 298 299 300 301 302 302 303 303 304 305 307 308 307 305 304 306 308 308 309 309 309 308 308 308 309 309 309 309 308 308 309 309 309 309 309 309 308 308 309 308 307 306 306 306 305 305 306 306 308 309 310 310 310 310 310 310 310 309 309 309 309 309 309 309 309 308 308 308 308 308 307 307 307 306 305 304 304 304 304 304 304 303 303
294 295 296 296 296 296 296 297 298 298 299 299 300 302 304 305 305 302 301 302 303 305 307 308 307 306 305 305 306 306 307 308 307 308 308 308 308 307 308 308 308 309 309 308 307 306 306 306 306 306 306 307 308 309 310 309 309 309 309 309 309 309 308 308 308 308 308 308 308 308 307 307 307 307 307 306 306 305 305 304 304 304 304 304 303 303 303
293 293 294 294 294 294 294 294 295 295 296 296 297 298 300 302 302 300 299 299 300 301 302 304 304 303 301 302 302 302 303 304 305 306 306 307 307 307 307 308 308 308 309 309 308 308 307 306 306 306 306 307 308 309 308 308 308 309 308 308 308 308 308 307 307 307 307 307 307 307 307 307 306 306 306 306 305 305 305 305 304 304 304 303 303 303 303
Wind_Speed
12 9 8 10 17 16 16 19 20 21 23 22 18 11 9 10 8 7 10 7 4 4 6 8 7 5 7 7 6 7 7 6 7 7 9 10 12 13 15 16 18 18 16 16 16 15 17 22 25 25 26 26 25 26 28 28 27 29 31 30 31 32 32 31 30 30 30 28 30 32 32 31 30 28 26 24 22 22 22 22 22 21 21 21 21 20 20
11 11 11 12 16 17 17 19 21 21 21 19 16 14 16 16 13 12 12 7 3 4 2 4 1 4 3 3 5 6 6 7 8 9 11 10 10 11 12 12 14 15 15 15 15 14 17 21 25 26 26 26 25 26 28 30 28 30 32 31 31 31 31 30 31 31 29 29 30 32 33 32 30 28 26 24 23 22 22 22 22 22 21 21 21 22 22
9 11 12 14 15 17 18 19 21 21 20 19 19 16 14 14 14 15 12 7 3 1 2 3 6 7 5 1 6 7 6 6 5 7 11 11 11 13 13 13 13 14 13 14 15 15 17 22 26 26 25 25 25 26 30 31 29 30 32 31 31 31 30 30 32 30 28 29 32 34 33 32 31 29 26 25 24 23 23 22 22 23 24 23 22 24 26
4 9 14 14 13 15 18 18 19 20 18 17 16 13 10 10 13 14 10 4 4 3 4 6 6 5 2 1 2 2 5 8 6 5 9 11 11 11 11 12 14 14 13 13 15 16 17 22 26 26 25 26 26 27 30 31 30 31 32 30 30 31 29 30 31 30 27 30 34 35 33 31 31 29 26 25 25 24 24 24 24 25 25 23 22 26 28
4 8 12 9 7 11 14 14 17 19 18 17 16 13 12 13 12 9 6 5 6 5 5 8 7 6 6 5 7 7 5 8 10 9 9 11 12 12 13 14 13 13 13 12 14 16 18 22 24 24 25 25 24 26 29 30 30 31 30 29 30 30 29 30 30 28 27 30 33 33 32 32 31 28 26 25 25 25 24 24 25 25 25 22 21 25 26
4 5 4 6 6 9 7 6 13 19 19 19 18 15 15 16 14 10 8 7 7 6 4 6 8 10 10 8 9 9 5 3 7 9 8 8 9 10 13 13 12 12 12 11 15 20 22 23 24 23 24 24 24 27 30 30 30 30 29 29 30 29 29 29 28 27 28 29 31 32 32 32 31 28 26 25 24 24 25 25 26 25 23 21 22 23 22
2 4 5 3 5 7 6 6 10 16 19 20 18 16 16 17 16 14 12 11 8 7 8 7 5 6 6 6 8 9 5 3 4 4 5 6 7 9 10 12 14 13 12 11 16 21 24 25 25 24 23 25 26 28 30 31 29 28 28 28 27 28 29 28 28 28 29 29 30 31 33 33 31 28 27 27 25 24 25 25 25 24 22 22 23 22 19
2 1 0 2 4 9 12 12 10 13 17 17 16 14 14 14 13 12 12 13 9 8 10 10 7 5 6 8 10 7 5 6 5 6 7 6 6 9 11 11 11 12 14 17 20 22 24 26 25 24 24 26 28 28 29 31 29 28 29 28 28 29 29 29 29 30 30 30 30 32 33 32 31 29 28 27 25 25 25 24 24 24 22 22 22 21 19
1 0 1 4 7 10 11 9 6 9 11 10 9 9 10 13 13 13 14 14 13 12 13 10 6 5 6 8 8 3 3 5 8 9 9 8 8 8 12 12 10 11 17 23 26 26 26 25 24 25 26 28 29 28 28 30 28 27 27 27 29 31 30 30 31 31 31 31 30 31 32 31 30 29 28 27 25 26 26 24 23 23 22 21 21 20 20
1 1 2 5 6 6 4 5 9 10 9 5 2 4 7 10 13 14 14 15 14 13 12 10 7 5 6 8 7 3 2 6 11 11 9 9 9 7 13 15 14 18 22 26 28 29 28 25 23 25 28 30 29 26 26 28 27 26 25 24 28 31 30 31 32 31 31 31 31 31 31 30 30 29 28 27 27 27 27 25 23 22 22 21 20 20 20
2 2 3 4 4 3 5 9 13 13 12 8 3 5 6 7 10 13 13 11 10 11 12 11 8 5 6 8 5 2 2 8 11 9 7 7 5 9 16 17 19 23 26 27 28 29 28 25 25 28 31 32 29 25 25 26 25 24 25 25 28 30 29 31 31 30 30 30 31 32 31 31 32 31 29 28 28 26 26 25 23 22 22 21 20 20 20
3 3 4 3 3 3 5 8 12 14 13 9 5 8 5 1 4 7 10 12 12 11 10 9 8 7 8 7 2 4 3 5 2 4 3 2 4 7 12 18 22 26 28 28 26 25 25 26 27 30 32 31 28 25 26 26 24 25 26 26 27 28 28 29 29 28 29 30 31 32 31 31 32 31 29 29 28 26 24 23 22 21 21 20 20 19 19
4 4 4 3 4 5 4 5 10 14 11 6 5 6 2 6 9 7 4 7 10 11 10 7 7 7 6 3 4 5 1 2 3 5 5 5 8 7 10 18 25 24 24 26 25 23 25 26 27 29 30 27 25 25 25 24 24 27 29 28 29 29 28 28 28 27 28 31 32 31 31 31 32 29 27 29 29 26 23 21 21 20 19 19 19 18 18
3 3 4 4 3 4 4 7 12 13 8 4 2 2 3 6 8 8 7 6 6 7 10 9 6 4 3 3 4 5 3 3 4 7 8 9 11 12 15 23 25 22 20 22 23 24 27 28 27 27 27 25 23 24 23 22 24 27 29 29 28 29 29 27 27 27 29 31 32 30 30 31 31 28 26 27 28 25 23 22 21 20 19 18 18 18 18
3 3 4 3 2 0 2 7 9 7 2 1 2 3 5 5 5 6 4 6 9 8 8 10 7 7 6 4 3 3 4 5 6 8 10 10 10 12 17 22 23 21 20 20 21 23 26 28 27 27 27 25 24 23 23 24 26 26 27 28 27 27 26 25 26 28 30 32 33 32 32 33 32 30 28 28 27 25 23 22 21 21 20 19 17 16 17
3 2 2 3 2 0 2 2 2 3 4 6 7 4 4 3 3 4 3 3 7 11 8 7 8 9 6 3 2 2 5 6 6 6 9 10 10 14 18 21 23 22 20 20 22 23 26 26 25 27 27 24 23 23 23 26 28 28 29 31 29 27 25 25 28 31 32 33 34 33 34 33 32 31 30 29 27 24 22 23 24 23 23 22 19 17 18
2 2 4 4 2 1 2 1 3 3 3 7 10 7 5 3 2 3 3 1 2 8 5 4 8 7 4 4 2 2 3 5 6 8 10 11 12 15 17 22 25 23 20 22 23 23 24 24 23 23 23 22 21 22 23 26 27 28 30 31 29 26 24 26 30 33 34 34 35 35 35 34 33 32 31 29 26 24 23 26 27 25 23 22 20 19 19
3 5 9 5 3 3 1 1 2 4 5 7 10 9 8 7 6 3 3 0 0 3 4 6 6 5 4 3 2 1 4 4 3 3 5 8 12 16 17 19 23 22 20 22 23 22 23 24 22 20 21 21 20 20 23 27 28 28 30 30 27 26 25 26 29 33 34 34 35 35 34 33 32 32 31 29 26 24 25 26 27 25 23 22 20 19 19
4 4 6 4 3 3 1 1 2 5 7 6 7 5 8 11 9 4 2 2 3 3 4 5 5 5 3 1 1 2 4 3 3 6 6 3 3 11 18 20 21 21 20 19 19 20 21 23 23 21 20 20 20 20 23 27 28 27 28 28 26 26 26 27 29 33 34 34 34 34 33 30 29 29 28 27 26 25 25 24 23 22 22 22 21 19 18
7 3 2 2 1 3 4 3 2 4 5 4 5 3 3 8 11 6 4 4 5 5 5 7 7 6 2 0 1 1 3 5 5 6 6 2 9 9 22 24 21 20 20 19 18 18 18 20 21 21 20 21 21 21 24 26 25 24 26 28 26 26 27 28 29 32 34 33 33 33 31 29 29 29 28 27 26 27 26 24 23 22 22 22 21 19 19
5 2 5 8 6 5 8 9 8 7 7 8 9 6 2 5 10 11 9 8 8 7 6 7 9 8 5 4 4 3 4 8 7 5 6 9 11 9 19 20 17 17 17 18 19 17 16 17 18 18 18 21 22 21 23 26 25 24 26 28 26 25 26 25 26 29 32 33 33 33 30 28 28 28 28 27 26 25 24 23 23 23 23 23 23 22 21
3 2 7 8 5 2 6 7 7 5 7 7 7 9 6 6 9 11 12 10 8 7 7 7 8 8 7 8 8 5 4 8 10 8 7 9 7 10 17 18 18 18 16 20 24 21 17 16 16 16 18 21 22 22 24 26 25 25 26 25 23 23 23 21 24 29 31 30 31 31 29 26 25 24 24 22 22 23 23 22 22 24 24 23 23 22 21
3 4 4 3 4 4 2 3 5 3 4 4 1 3 6 7 7 9 11 11 9 8 8 8 9 9 9 9 9 7 6 8 11 11 11 9 4 8 13 15 16 14 14 19 25 25 22 18 16 14 16 18 21 24 24 24 25 29 28 23 20 21 20 20 24 27 27 25 26 26 25 24 23 24 22 20 20 21 22 22 23 24 24 22 21 21 20
5 5 3 0 3 4 3 4 4 2 3 2 3 5 6 7 8 9 8 8 9 10 9 9 9 10 9 10 9 8 8 8 9 10 10 8 7 10 11 13 15 13 13 16 20 23 23 22 18 15 14 17 23 25 24 23 25 29 28 22 19 19 19 21 25 26 24 24 25 25 24 23 23 24 23 21 20 20 21 22 23 22 22 22 20 20 19
5 3 2 3 2 2 2 4 2 3 4 3 4 6 6 6 6 7 7 7 8 9 9 9 10 10 9 9 9 8 8 8 7 7 8 9 12 12 10 10 13 14 15 16 17 19 20 22 21 17 14 17 22 22 22 23 25 26 25 22 20 20 21 22 24 24 23 25 25 25 25 25 23 23 23 22 20 19 19 21 22 22 22 22 21 22 21
6 3 3 4 3 2 3 4 1 3 4 4 4 5 6 6 5 4 5 6 6 7 7 7 8 10 11 10 9 9 9 8 8 9 8 8 9 10 10 11 14 16 16 16 15 16 16 17 17 15 13 17 21 19 19 23 24 24 23 22 20 22 25 25 24 23 23 24 24 24 25 25 23 23 23 23 22 22 22 23 23 22 23 21 20 23 24
5 4 3 3 2 2 2 1 1 2 3 4 3 4 4 6 7 6 3 3 4 6 7 6 7 8 10 10 10 8 7 7 9 9 8 7 7 8 10 12 13 15 16 15 14 13 14 14 15 14 14 16 19 19 20 24 24 22 22 20 17 22 26 25 22 22 24 25 25 25 25 25 23 22 22 22 23 24 23 23 23 22 22 22 22 24 25
4 6 5 3 1 1 3 2 2 1 1 2 2 3 3 5 5 3 3 3 5 5 5 6 6 5 5 7 7 5 4 6 8 8 7 7 7 7 8 10 10 11 12 13 12 11 11 11 12 13 15 17 18 16 19 24 25 23 22 20 18 23 26 23 20 20 23 25 25 26 26 25 24 23 22 21 22 23 22 21 21 20 20 22 23 23 24
2 8 7 3 1 1 1 1 2 1 0 0 1 2 2 2 2 1 1 4 6 4 5 7 7 6 5 5 5 4 4 5 6 8 9 9 7 6 7 8 8 9 10 11 12 11 10 10 11 12 14 16 15 12 12 16 18 19 20 21 22 26 27 24 21 20 21 22 22 24 25 24 23 23 22 21 22 23 21 20 21 20 19 20 23 23 22
6 8 8 4 1 1 2 3 3 2 1 1 3 3 2 0 0 1 1 5 4 3 5 5 5 5 5 5 4 5 4 4 4 7 9 9 7 6 6 7 7 6 6 8 10 11 11 12 12 13 15 15 14 13 12 12 12 12 13 17 21 25 26 25 24 24 23 22 21 22 23 23 22 22 22 21 23 23 21 21 22 21 19 20 23 25 24
9 7 5 5 4 4 4 4 3 3 2 2 3 3 1 2 2 2 4 4 2 3 5 4 2 3 4 4 5 4 4 3 4 6 9 9 7 6 6 5 5 5 5 7 9 11 11 12 13 14 16 17 17 16 16 16 15 16 17 19 22 24 25 24 24 24 24 24 24 24 23 22 21 22 22 22 22 22 21 21 22 22 20 19 21 24 25
5 7 2 3 5 5 4 4 3 3 4 4 4 1 3 5 4 5 5 4 3 4 5 4 2 3 4 3 2 3 4 4 3 5 8 9 8 7 6 6 6 6 6 8 9 9 10 11 14 17 18 19 19 20 21 22 22 22 22 22 24 25 25 23 23 22 22 22 23 24 24 22 21 21 23 22 22 21 19 19 21 23 21 19 19 21 24
3 5 3 3 3 3 3 4 4 4 6 6 3 2 4 4 4 6 5 4 5 5 5 3 2 2 2 1 0 2 4 3 2 4 6 7 8 8 8 8 8 8 8 9 10 8 8 11 16 18 18 18 20 21 22 22 21 20 19 20 22 25 26 24 23 22 21 21 22 22 23 22 21 21 23 23 22 21 20 19 20 21 21 19 19 20 24
5 3 3 3 4 3 2 1 3 5 7 6 3 2 1 3 6 7 6 5 5 5 3 2 1 2 3 1 1 2 3 2 1 2 4 5 6 6 6 6 6 7 9 10 10 9 8 10 15 17 15 15 16 18 19 19 18 17 17 18 21 25 26 23 22 22 21 21 21 21 21 21 20 20 22 22 21 20 19 18 17 18 19 20 19 18 22
3 2 2 4 5 3 3 4 2 3 5 6 4 2 2 4 6 5 4 5 6 5 4 4 4 3 4 4 3 4 4 3 3 3 4 5 5 4 5 4 4 6 9 9 9 9 9 11 14 15 14 14 15 17 18 19 17 16 18 19 20 24 24 22 21 21 21 21 21 21 21 21 21 19 18 18 19 18 17 16 17 18 18 18 16 14 17
2 2 2 3 3 2 2 2 1 1 3 5 5 4 4 5 4 4 4 5 6 6 6 6 6 6 6 7 6 6 5 5 5 5 4 5 4 3 3 3 4 6 7 7 6 6 8 11 15 14 13 15 17 17 18 19 17 17 20 20 19 22 22 20 19 19 19 19 20 20 20 21 21 19 16 15 17 18 17 16 17 17 15 14 14 14 17
1 1 1 2 2 2 2 1 2 2 2 3 3 4 4 3 3 3 4 5 6 6 6 6 6 6 7 8 9 8 8 7 7 6 5 4 2 2 2 2 3 4 4 4 4 3 4 11 16 16 14 16 18 17 17 17 15 16 20 21 19 21 21 19 16 16 17 17 18 19 19 19 19 20 18 16 17 19 19 17 17 16 15 16 16 15 18
2 1 1 1 2 3 3 3 3 2 2 2 2 3 3 3 3 3 3 5 6 6 4 3 3 4 5 7 8 9 9 9 8 6 6 6 4 2 1 3 3 2 2 4 7 7 7 11 15 13 11 11 14 15 16 14 12 14 19 20 19 19 19 18 16 16 16 17 17 18 19 19 18 19 19 19 19 20 19 17 17 17 17 17 17 15 17
4 4 2 2 2 2 3 2 1 1 2 2 1 2 3 2 1 0 2 5 5 4 4 5 4 2 2 4 5 7 8 9 9 8 7 7 6 5 6 8 7 6 5 6 7 7 7 8 11 12 8 5 7 12 16 16 11 10 16 19 19 18 18 18 17 16 17 18 18 18 18 18 18 17 18 19 20 19 17 16 17 18 17 16 16 16 17
7 5 2 1 1 1 1 1 1 1 2 2 1 2 2 2 2 1 3 4 3 4 7 9 9 7 5 5 6 7 7 8 7 7 7 7 7 3 5 8 9 9 9 8 7 8 7 5 8 11 8 2 3 9 15 17 13 9 12 17 18 17 16 16 16 16 16 17 18 18 17 17 18 18 18 18 18 17 17 17 17 18 17 17 18 19 19
9 7 4 1 0 0 1 1 1 2 3 3 2 2 2 2 2 1 4 4 3 5 7 9 10 9 8 7 7 6 5 5 4 4 5 6 6 5 2 7 9 9 8 7 6 6 6 4 6 8 7 5 6 10 13 17 16 12 11 13 14 14 16 17 17 17 17 17 18 18 17 17 18 18 17 17 18 17 16 16 16 16 17 17 18 19 19
9 9 6 2 1 1 1 2 2 3 3 3 3 3 1 1 0 3 5 4 4 4 5 6 7 6 6 5 5 5 5 4 4 4 3 2 4 6 4 7 7 7 5 4 3 3 6 6 5 6 7 8 11 12 13 16 16 12 10 11 11 12 15 17 17 16 16 15 16 17 16 15 16 17 16 16 17 17 16 16 17 18 18 19 19 18 17
12 12 9 5 2 1 2 2 2 2 2 3 4 3 2 1 2 4 4 3 3 3 3 5 7 7 6 5 5 5 5 5 4 4 2 3 6 8 8 8 7 6 5 4 1 2 6 7 5 3 4 8 13 12 12 14 15 12 9 8 7 7 9 11 12 13 13 12 13 15 14 11 12 14 14 13 15 16 16 16 18 19 20 19 19 18 17
11 11 11 11 6 1 2 2 2 3 3 3 3 4 3 4 4 4 3 5 7 7 6 7 8 8 8 8 7 6 6 5 4 4 2 5 8 11 11 9 7 6 5 3 3 2 6 10 7 4 4 7 10 9 8 11 13 9 4 3 4 4 5 7 8 9 11 10 11 14 14 11 11 12 12 13 15 16 14 13 15 16 18 18 18 19 19
10 11 13 17 16 7 0 2 2 3 4 4 4 4 5 5 4 3 4 7 8 7 6 7 7 6 6 6 5 5 5 4 4 5 6 5 5 6 7 8 7 6 5 6 8 8 10 11 7 5 6 7 9 9 9 10 11 7 4 4 5 6 8 9 8 10 12 12 13 14 14 14 14 13 12 14 18 19 17 16 15 16 17 19 19 19 18
11 12 15 16 18 13 4 3 3 3 6 7 5 4 4 4 4 4 5 7 8 6 5 5 5 4 5 5 5 4 4 4 3 6 9 9 7 5 5 5 5 5 7 8 9 9 9 7 5 5 6 7 9 10 10 11 11 10 11 13 11 9 9 11 11 12 13 14 14 14 14 14 14 14 13 14 17 19 20 20 19 18 17 17 17 16 16
15 14 15 15 16 13 6 6 6 6 6 6 4 3 5 5 4 3 4 5 6 5 4 3 2 4 5 6 6 6 6 7 6 9 12 12 11 9 7 6 5 7 8 9 8 6 5 4 4 6 6 8 10 10 9 10 12 12 13 13 12 10 9 10 10 11 11 11 11 13 14 14 15 15 16 17 19 19 20 20 20 17 16 15 15 15 16
16 15 15 17 18 18 16 14 11 9 8 7 7 8 7 6 7 6 4 2 1 3 4 5 5 5 5 5 5 6 6 6 5 7 10 10 9 9 8 7 7 7 6 6 6 5 4 3 4 5 7 10 10 6 4 6 9 8 7 7 7 7 6 7 8 10 11 11 11 12 13 12 13 13 14 16 18 19 18 18 18 17 16 16 17 17 17
16 16 17 18 19 20 19 15 11 9 11 14 15 15 12 9 12 14 14 12 8 4 4 5 5 5 4 3 3 5 6 6 6 7 8 7 8 9 9 8 7 6 5 5 6 6 5 4 4 5 8 10 7 3 4 2 4 2 0 2 2 3 3 3 3 5 7 8 9 10 9 8 9 10 10 12 14 16 16 16 18 18 18 17 17 18 19
17 16 16 17 18 18 17 14 11 11 14 17 17 17 14 12 14 15 17 18 16 13 9 8 10 13 15 13 11 9 8 8 8 9 8 7 9 10 8 7 6 6 5 5 6 7 7 6 5 5 8 7 2 4 2 3 4 2 1 2 2 1 0 1 1 2 2 2 4 7 7 6 6 7 8 8 10 14 17 17 18 19 19 18 18 19 19
17 15 15 15 16 18 18 17 16 17 17 17 18 18 17 14 14 15 18 20 18 16 14 13 15 19 22 21 20 19 18 16 13 11 9 8 7 7 6 6 5 5 4 5 7 9 9 7 5 6 7 3 2 3 2 5 5 3 1 2 2 2 2 2 1 1 2 1 1 4 6 6 5 5 6 6 6 8 12 15 16 17 17 17 17 16 16
18 18 17 16 16 18 19 20 20 20 20 19 19 19 17 15 14 16 19 21 19 16 14 13 15 18 20 21 20 21 23 22 21 19 19 17 14 10 7 6 5 3 2 3 6 9 9 6 5 6 6 2 3 2 2 3 3 2 1 1 1 2 2 1 1 1 2 3 2 3 5 7 6 6 6 6 7 8 9 11 13 14 13 13 14 14 14
Wind_Direction
258 263 270 222 202 208 209 205 213 222 225 229 234 247 271 265 247 238 246 241 174 176 239 242 223 193 178 172 155 153 149 129 120 111 117 139 148 151 153 157 165 174 178 176 174 174 173 172 173 174 178 181 176 174 178 176 172 170 167 164 163 162 161 161 162 164 165 166 166 166 165 164 163 163 162 165 169 170 171 170 169 171 171 169 167 165 161
253 248 266 251 219 209 212 213 214 220 226 228 231 243 250 247 240 240 255 271 203 165 280 297 320 66 58 108 118 123 132 141 160 168 156 148 156 164 161 160 169 175 177 174 171 172 173 172 172 175 180 181 173 169 173 174 172 170 167 164 162 162 163 164 163 162 162 163 164 163 164 165 164 163 163 167 170 170 170 169 170 173 172 168 168 166 162
261 256 255 243 224 212 214 219 218 218 223 225 223 226 232 234 234 238 252 285 305 97 74 40 46 49 32 85 128 127 139 152 166 179 174 169 176 182 174 168 173 177 176 172 171 176 178 174 174 177 179 177 172 170 172 173 172 170 168 165 162 162 164 163 161 161 160 162 165 164 164 165 166 165 165 169 170 169 168 170 173 174 170 168 170 170 168
265 280 265 249 237 225 220 221 220 217 219 224 225 221 222 229 232 239 248 255 264 250 159 119 75 59 46 262 219 184 164 166 171 183 186 181 183 187 180 175 177 178 177 177 177 177 175 174 177 178 176 173 171 172 173 172 170 168 167 165 162 161 162 160 158 159 160 163 166 166 165 167 167 166 169 170 169 170 169 171 173 171 168 170 174 174 171
246 252 255 269 281 243 220 213 216 216 218 225 228 218 218 234 242 247 248 219 226 239 169 140 143 172 189 210 233 239 207 175 175 184 194 189 183 186 188 182 173 169 174 183 179 170 166 172 179 179 174 170 169 169 168 167 166 166 164 161 159 158 159 158 158 158 159 162 166 167 168 168 166 168 172 171 169 170 170 170 170 169 170 173 172 170 171
282 272 302 344 298 244 223 210 213 215 217 223 226 218 211 218 227 240 252 235 226 236 215 176 173 190 205 209 213 225 235 181 162 174 193 195 179 182 188 179 161 165 181 179 165 161 164 170 176 176 172 168 165 165 164 163 163 164 162 159 157 156 158 158 158 160 161 162 165 167 170 169 168 171 173 171 169 170 171 172 173 173 174 173 168 166 171
285 355 10 333 259 255 291 288 237 225 222 220 224 228 222 215 215 227 246 248 235 238 253 250 226 218 236 255 248 232 213 106 105 162 209 208 181 179 187 175 163 173 187 170 154 158 164 169 172 172 170 166 163 162 163 162 161 160 160 158 157 157 159 160 162 164 166 165 165 167 170 170 171 172 170 168 169 170 171 174 176 176 177 177 174 172 176
243 56 119 251 295 300 280 266 257 243 230 218 216 223 227 225 219 218 236 250 251 244 243 244 248 257 263 276 276 252 180 145 157 193 215 226 211 190 180 169 162 172 174 162 155 157 162 168 171 170 166 160 157 159 162 163 161 159 159 161 162 162 162 164 166 167 168 166 166 168 170 170 171 171 168 166 167 168 167 168 171 174 177 179 179 180 182
274 16 275 276 296 286 255 244 270 263 241 225 217 217 217 218 217 213 216 225 232 241 247 245 247 266 270 269 271 253 164 178 201 203 203 221 238 201 160 144 145 162 164 159 155 154 160 168 169 166 164 157 154 157 161 162 162 163 165 167 166 165 165 166 168 169 168 167 166 167 170 172 172 171 169 169 170 170 167 165 167 169 172 175 178 182 184
355 17 318 288 284 275 258 310 326 310 299 315 302 250 227 208 213 221 218 212 213 225 244 252 248 243 255 264 255 204 192 244 235 219 205 219 233 184 140 135 149 163 162 157 153 154 160 167 164 158 159 155 151 154 159 162 166 170 172 170 165 166 170 170 169 169 169 168 168 169 172 176 175 173 173 174 174 172 169 169 172 173 174 175 178 183 186
311 323 296 285 289 281 282 311 326 319 309 318 306 241 228 202 213 225 223 218 214 212 223 234 237 235 243 253 247 124 11 278 246 213 200 223 211 144 144 153 158 157 152 149 151 156 161 165 158 153 153 153 152 155 161 166 170 174 178 176 170 170 172 170 169 170 170 171 173 172 173 174 173 172 173 174 173 171 171 174 177 178 177 176 179 185 188
286 288 282 271 259 265 288 315 324 314 302 293 243 216 214 315 292 248 225 219 215 213 219 221 218 228 239 242 214 90 25 302 246 138 170 218 99 121 161 158 143 142 146 148 152 156 160 160 155 152 153 155 157 161 165 170 174 176 179 179 175 172 169 166 169 171 171 173 174 172 171 171 171 171 172 172 170 168 171 174 174 176 178 177 179 183 185
276 275 290 287 260 272 307 321 302 291 284 265 226 207 238 334 330 320 288 247 225 213 210 214 219 228 235 218 120 115 150 255 144 149 186 153 125 159 172 137 126 134 145 149 152 152 155 159 156 155 157 158 161 165 168 174 177 176 177 178 175 172 168 167 170 171 171 174 174 171 171 171 169 170 170 171 170 167 167 169 169 173 175 172 173 174 177
278 272 278 286 271 274 315 320 295 276 251 217 222 265 302 312 318 328 345 343 302 239 208 207 210 178 142 112 112 132 182 200 173 181 180 156 155 168 148 127 128 135 138 145 152 151 154 158 158 158 160 161 165 170 174 179 181 177 175 173 168 167 167 166 168 170 172 174 172 169 169 169 167 166 166 167 167 165 164 166 167 166 163 160 163 165 170
264 263 264 292 307 267 1 340 314 298 298 352 300 291 296 310 326 329 347 11 346 310 231 201 168 119 111 105 111 156 193 189 190 185 166 158 161 152 135 130 135 139 140 149 154 152 156 162 162 162 163 164 168 173 176 181 182 176 170 166 162 162 163 163 165 169 172 173 171 169 168 167 165 163 163 163 163 162 162 163 160 157 156 156 156 161 173
253 259 248 270 277 206 80 55 285 298 335 314 296 297 314 326 347 341 354 35 343 311 264 184 131 110 109 107 118 215 211 190 192 176 154 154 152 144 142 139 137 139 147 156 159 158 161 165 165 165 167 169 171 175 175 178 178 171 165 165 163 160 159 160 162 166 169 171 170 168 167 165 163 161 162 162 161 161 162 160 156 155 158 160 162 170 183
219 252 249 235 194 101 88 169 235 265 308 307 313 331 340 341 10 345 334 51 317 305 312 95 103 104 103 85 55 300 236 198 186 167 157 157 148 144 147 144 143 148 155 156 159 161 163 166 169 170 172 171 168 170 169 166 166 162 159 159 158 154 153 155 158 161 163 165 167 167 166 165 164 162 161 160 161 163 162 160 159 160 162 169 177 184 187
208 250 258 241 135 117 148 222 314 350 9 343 331 336 340 349 7 348 311 98 152 326 24 81 96 91 92 99 94 206 219 207 177 142 148 153 150 148 147 147 151 155 154 154 158 159 161 167 172 175 178 174 167 165 161 157 156 157 155 155 157 159 158 156 157 158 158 159 163 166 166 166 165 163 163 163 164 164 161 161 166 169 172 181 189 188 184
229 255 260 246 153 140 140 66 18 32 35 352 321 342 349 336 330 314 306 54 70 55 71 98 100 76 62 91 137 186 197 173 71 52 49 11 223 158 145 151 158 153 150 156 158 156 161 169 172 175 178 175 168 163 160 159 160 159 157 157 159 160 157 154 157 160 160 159 162 163 164 164 164 165 166 168 168 169 167 167 172 178 180 184 187 186 184
249 246 268 288 162 112 68 36 5 42 53 348 318 12 12 312 312 330 17 48 57 64 85 101 104 101 98 75 79 143 152 113 68 65 86 271 260 179 147 154 159 148 149 159 155 153 163 168 170 173 171 166 164 162 161 164 164 158 156 157 154 152 151 152 157 162 163 162 162 162 163 165 166 168 171 173 175 177 176 176 177 179 180 183 187 187 186
275 297 351 2 25 35 28 21 359 4 37 17 338 327 298 311 332 349 9 32 46 53 68 88 105 120 135 137 134 152 141 122 113 119 161 221 238 168 139 140 130 120 135 148 145 147 158 160 166 173 167 164 169 167 165 170 170 161 156 156 154 152 150 150 156 162 165 165 165 165 167 169 171 174 176 178 179 181 182 183 183 181 181 185 189 189 187
340 359 352 14 45 359 355 2 332 338 55 47 329 305 318 353 353 351 356 8 28 47 59 73 95 111 116 121 130 138 131 125 127 142 193 231 222 142 128 118 105 107 128 139 138 141 149 156 166 169 161 164 174 173 171 175 175 165 158 156 156 158 156 155 159 162 163 165 167 168 169 170 172 176 179 180 183 184 186 188 189 188 187 189 191 191 189
312 306 331 54 136 198 249 265 264 276 87 102 206 320 355 358 356 359 360 357 1 16 38 57 75 89 94 100 111 117 116 120 132 155 190 216 188 128 122 111 107 120 143 144 140 142 147 153 160 166 167 167 165 167 172 176 170 163 162 161 160 163 166 166 165 163 161 162 166 167 168 171 172 173 175 180 184 187 189 190 191 192 192 193 193 192 192
277 284 308 69 178 191 213 239 253 346 35 61 86 62 34 19 18 18 14 7 5 9 12 25 48 69 84 90 94 96 99 107 124 148 167 161 117 105 112 112 113 124 140 142 138 140 145 149 153 168 181 167 154 160 175 179 167 160 163 167 166 166 167 166 163 163 163 165 168 168 169 172 173 170 171 175 177 181 188 191 190 190 193 195 194 191 189
282 277 307 292 248 168 196 242 258 37 27 22 42 40 37 39 33 28 29 21 15 20 18 12 20 37 57 75 82 81 80 76 70 78 90 91 89 90 93 97 103 113 128 137 140 143 149 151 154 166 176 167 161 168 179 179 170 160 161 171 172 165 161 159 160 164 166 167 169 170 169 171 172 170 173 175 171 167 172 179 184 190 196 199 196 191 192
293 298 308 293 273 177 192 220 210 52 45 46 35 18 21 23 11 24 54 41 17 22 29 18 12 22 34 49 61 70 77 70 56 59 69 80 90 93 89 87 96 110 126 135 138 141 146 150 155 161 166 168 171 173 169 167 167 164 168 177 175 163 159 161 163 166 167 167 168 170 170 172 173 173 174 175 170 164 162 167 177 188 194 194 192 194 201
278 291 298 281 232 155 118 92 48 62 74 68 38 10 23 31 14 355 10 56 40 22 20 25 28 26 31 43 51 59 78 78 65 63 66 65 68 79 89 99 107 117 127 133 135 140 148 158 164 167 169 172 176 176 168 163 162 165 171 176 170 162 163 166 165 166 168 168 168 169 170 173 176 174 170 170 172 173 171 170 174 182 188 190 190 196 205
308 296 297 293 243 93 73 39 335 339 99 91 50 7 10 46 45 347 315 38 55 29 15 28 33 29 40 51 49 47 70 84 83 83 80 74 70 74 87 103 114 119 124 127 129 137 151 165 171 171 170 170 169 167 165 165 166 166 167 167 165 163 164 163 163 166 169 170 170 169 170 173 175 173 170 169 173 177 177 177 179 183 189 192 193 196 205
258 273 279 283 323 24 41 262 274 292 339 302 315 298 305 19 52 284 334 45 44 36 40 35 21 17 36 50 48 43 48 66 83 91 87 83 85 84 83 92 106 118 122 122 123 130 142 152 154 150 150 157 161 156 153 158 159 155 154 158 163 166 164 163 164 167 169 172 172 171 171 171 173 174 176 177 177 177 178 181 183 185 188 191 193 194 199
175 252 282 307 25 339 296 287 285 279 264 323 320 300 271 127 315 286 71 72 58 49 58 45 16 12 25 31 42 52 50 48 70 89 92 88 87 94 100 106 113 120 129 131 133 140 147 151 152 145 140 147 157 154 144 139 136 138 150 161 164 166 166 166 166 166 169 172 172 172 172 173 173 176 178 177 175 173 175 178 182 186 189 190 191 193 194
158 198 266 321 349 335 321 332 337 335 356 2 324 308 10 89 74 26 49 68 74 70 71 64 23 18 38 44 49 61 73 67 63 85 98 99 95 100 116 129 132 139 159 159 155 159 162 158 156 151 148 151 157 158 159 163 168 175 181 178 171 171 174 173 168 166 167 169 169 169 170 170 172 174 175 173 170 170 174 179 183 188 191 190 190 194 196
149 151 169 313 322 319 326 347 357 352 342 314 275 273 52 51 54 50 41 25 20 56 76 75 38 32 50 58 61 83 95 93 91 104 111 116 121 126 137 147 148 156 172 166 161 170 173 159 149 149 153 160 169 174 175 174 172 173 176 175 172 174 178 175 168 165 165 167 168 168 169 169 171 173 175 175 175 178 184 189 185 184 188 194 195 196 196
67 100 143 217 244 261 300 342 353 343 330 316 305 57 59 50 58 57 43 23 21 37 55 63 62 76 87 70 74 101 95 95 115 122 121 127 136 143 154 164 167 171 171 160 160 178 184 159 151 157 163 168 174 178 177 171 167 166 167 168 170 173 174 173 169 165 166 169 172 174 176 178 178 178 181 183 184 186 194 200 193 184 185 195 203 204 201
83 105 176 159 138 171 193 59 3 326 325 332 340 354 8 48 58 47 27 18 24 29 29 20 27 106 114 109 69 76 76 81 116 115 111 120 128 135 148 161 163 160 159 156 161 181 191 165 153 157 163 167 171 174 173 172 173 168 158 156 164 170 170 169 167 165 166 171 176 179 182 184 185 186 187 188 188 191 198 205 203 198 197 199 205 213 210
97 122 155 119 110 129 139 126 139 296 322 336 329 319 17 55 60 53 29 17 14 10 17 21 25 54 79 82 75 66 60 55 58 68 90 106 113 124 140 147 136 139 151 160 167 179 189 178 160 153 154 161 169 173 174 178 181 170 156 155 163 168 168 169 169 168 170 175 178 180 183 187 191 191 189 187 189 195 204 208 210 216 215 206 203 214 213
160 133 106 90 83 77 87 102 155 299 336 336 336 358 32 46 48 42 30 20 13 12 26 42 51 58 61 62 62 63 65 68 63 57 74 101 115 133 157 167 152 143 149 161 170 184 196 185 172 165 164 167 172 175 178 185 186 170 157 158 162 163 165 170 171 171 174 178 181 183 186 189 191 193 192 191 192 198 208 213 215 220 222 212 207 214 210
213 169 104 51 16 6 7 319 282 276 273 287 336 23 43 52 45 28 16 19 22 24 33 51 64 71 77 75 67 55 50 55 61 61 63 75 107 190 205 181 157 161 169 157 133 122 150 164 168 174 177 176 176 177 180 188 187 166 156 158 160 161 165 170 171 172 176 178 181 184 185 186 190 196 201 203 202 201 205 208 208 210 213 210 206 202 194
287 294 290 305 325 330 318 289 281 292 292 298 359 43 61 65 46 17 18 35 32 24 29 51 61 74 94 95 84 70 56 43 38 45 52 42 13 334 62 77 79 107 163 142 124 116 124 148 165 178 183 179 178 176 178 186 181 155 151 156 157 157 165 172 174 178 182 180 179 182 184 185 189 194 198 205 209 209 208 205 202 202 204 203 195 184 181
300 296 286 275 284 292 282 274 302 4 338 318 348 62 88 95 103 336 54 53 36 10 12 23 19 17 63 73 69 67 59 38 20 21 32 24 10 34 80 86 78 77 91 108 125 138 143 151 169 178 177 171 169 168 175 187 187 154 149 157 158 158 166 174 176 180 184 182 181 182 183 185 190 193 195 201 208 212 211 207 204 200 196 195 194 193 191
317 307 303 280 266 266 268 305 339 348 324 310 324 124 139 185 222 185 88 72 37 6 18 25 18 7 10 42 58 56 44 29 15 9 11 2 346 358 106 105 88 82 90 101 124 151 160 168 182 183 180 186 178 167 175 190 199 175 152 156 158 160 168 175 179 184 186 184 183 185 186 187 193 198 200 200 203 207 207 204 202 198 194 196 205 209 204
306 293 291 303 321 4 47 25 13 22 18 7 20 100 141 204 251 95 98 92 40 16 29 36 27 7 357 18 45 37 11 1 354 348 358 356 334 325 54 93 77 71 83 93 109 142 154 162 183 185 184 196 196 182 182 192 196 182 160 160 165 169 176 181 184 187 189 189 189 191 192 191 193 198 202 199 197 201 203 199 197 199 200 203 208 210 206
308 301 299 313 16 25 36 47 49 48 43 39 47 65 103 215 331 71 88 81 34 18 34 43 31 4 337 341 349 338 339 1 3 341 343 5 347 348 45 93 76 57 73 95 105 147 153 155 174 188 190 191 191 189 190 192 190 184 181 184 184 180 182 185 186 188 190 188 184 185 191 195 193 194 197 196 192 193 197 198 199 203 206 204 202 202 204
356 346 331 318 325 40 49 49 56 63 69 78 79 72 46 39 74 87 96 73 16 2 22 33 24 12 3 1 347 334 354 31 20 333 329 86 55 39 65 98 82 57 89 130 192 216 173 161 163 174 182 189 193 195 195 194 195 200 204 195 172 152 156 164 169 175 177 172 169 175 186 195 192 189 189 188 184 182 185 189 192 196 199 197 196 201 211
18 7 340 318 311 325 120 104 84 86 70 57 79 97 97 89 91 101 93 58 35 23 24 34 35 29 22 18 11 0 7 23 10 342 8 89 74 56 65 82 70 57 93 105 13 15 146 151 148 128 131 162 175 176 176 185 194 202 202 143 127 142 160 157 156 164 168 166 172 184 194 199 199 196 194 190 187 186 186 184 185 189 194 198 203 211 218
30 31 7 341 326 316 85 91 80 108 97 60 46 70 93 103 105 90 66 60 54 41 32 36 42 36 19 9 4 360 356 353 358 12 33 65 71 55 62 72 63 56 76 65 46 67 111 129 136 132 127 137 148 152 160 175 183 184 179 171 177 195 202 200 194 192 192 191 192 195 200 207 210 209 204 199 198 200 203 204 203 204 205 207 210 213 214
22 42 39 5 332 317 335 50 35 56 78 72 57 47 61 74 69 54 59 68 68 60 54 47 35 23 11 0 353 351 347 348 25 67 77 81 79 70 64 62 61 69 74 69 68 83 98 104 117 138 139 138 144 153 165 174 178 188 201 200 190 186 197 203 199 197 201 203 198 192 195 206 210 207 207 207 205 205 209 213 213 211 209 206 205 204 203
13 30 40 19 345 332 356 44 37 30 49 67 68 47 49 62 66 55 66 80 85 90 100 93 47 31 29 17 7 14 19 15 37 76 86 83 80 76 67 61 77 89 77 62 58 63 65 80 124 148 157 159 160 166 176 180 183 196 208 202 187 182 197 206 199 190 194 206 208 202 200 204 205 205 209 213 211 210 211 211 208 204 203 203 202 201 203
15 19 21 15 8 10 23 37 41 32 25 25 21 12 16 51 77 66 39 26 126 141 125 98 68 58 52 29 19 40 51 37 36 69 82 81 80 78 72 74 91 97 76 53 51 54 58 89 126 147 159 161 164 185 215 194 184 195 208 196 184 190 204 210 204 195 193 202 214 213 207 207 211 214 214 214 212 210 205 199 196 198 204 206 203 202 205
18 21 19 17 18 22 26 32 36 29 19 18 14 3 0 30 53 40 16 1 1 27 80 94 83 71 67 52 35 52 65 55 40 48 64 78 87 87 86 92 101 99 85 70 69 71 77 94 118 145 156 157 166 253 280 187 158 168 159 130 160 203 212 203 195 188 185 197 211 209 203 211 225 230 231 229 220 210 200 194 196 202 207 208 207 208 211
16 24 27 23 22 23 25 26 26 23 19 15 9 2 7 36 51 35 14 10 15 19 25 41 44 36 32 31 30 34 41 42 32 31 47 72 86 88 91 95 94 96 107 106 89 82 85 90 101 130 148 157 204 300 323 103 112 108 27 43 46 35 67 67 95 152 168 194 204 196 195 211 231 236 243 244 221 201 196 199 205 208 211 214 216 216 216
17 22 27 29 29 29 29 27 24 21 19 15 9 7 15 37 53 41 24 20 22 19 17 27 36 32 26 23 22 22 25 28 26 22 27 45 67 86 110 119 110 112 133 132 107 97 95 92 102 132 148 165 282 315 39 72 76 81 74 25 16 31 44 28 4 238 232 272 223 186 195 213 239 249 253 255 232 205 200 203 205 209 214 219 220 221 223
26 27 27 29 31 33 33 30 27 23 20 15 12 10 13 26 43 43 32 25 24 19 13 21 35 36 29 22 18 17 21 27 31 28 25 27 32 42 60 74 72 75 122 136 131 132 130 119 113 128 143 187 280 283 100 88 81 91 110 92 34 45 51 24 327 269 243 254 262 232 210 209 221 240 247 243 242 239 228 214 207 210 218 225 227 228 231